Location: PSU-Greenbush Astrophysical Observatory
(37.5140°N, 94.9880°W)
Time: 19:32:23
(UTC-06:00)

Altair - Pass Details

Date: 01 February 2020
Orbit: 1502 x 1682 km, 47.2° (Epoch: 19 February)

Event Time Altitude Azimuth Distance (km) Brightness Sun altitude
Rises 04:40:59 0° 194° (SSW) 4,755 9.9 -32.5°
Reaches altitude 10° 04:44:32 10° 184° (S) 3,801 9.5 -31.8°
Maximum altitude 04:52:32 30° 128° (SE) 2,621 9.1 -30.2°
Drops below altitude 10° 05:00:45 10° 72° (ENE) 3,919 10.5 -28.6°
Sets 05:04:26 0° 63° (ENE) 4,924 11.1 -27.8°
